When you browse on this site, cookies collect data to enhance your experience and personalize the content and advertising you see.
Visit our Privacy Policy to learn more. By continuing to use the site, you agree to this use of cookies and data.
  • In Netherlands
  • List of Countries
  • For 7 days
  • Water Temperature
  • Weather Map
  • Weather Widgets
  • user-avatar
    Login

    Hourly Weather Maaseik

    Today, 29 March, Sunday

    Time Temperature Precipitation Wind Pressure Humidity
    00:00 +3°C° 0 mm 5 mps 767 mmHg 65%
    01:00 +3°C° 0 mm 5 mps 767 mmHg 63%
    02:00 +3°C° 0 mm 5 mps 767 mmHg 60%
    03:00 +3°C° 0 mm 5 mps 766 mmHg 58%
    04:00 +2°C° 0 mm 5 mps 766 mmHg 62%
    05:00 +2°C° 0 mm 5 mps 766 mmHg 66%
    06:00 +1°C° 0 mm 4 mps 767 mmHg 67%
    07:00 +2°C° 0 mm 6 mps 767 mmHg 61%
    08:00 +3°C° 0 mm 7 mps 767 mmHg 55%
    09:00 +3°C° 0 mm 9 mps 768 mmHg 50%
    10:00 +3°C° 0.1 mm 9 mps 768 mmHg 52%
    11:00 +3°C° 0.1 mm 9 mps 768 mmHg 55%
    12:00 +3°C° 0 mm 10 mps 768 mmHg 61%
    13:00 +3°C° 0.1 mm 9 mps 768 mmHg 61%
    14:00 +3°C° 0.1 mm 9 mps 768 mmHg 62%
    15:00 +3°C° 0.1 mm 9 mps 768 mmHg 62%
    16:00 +2°C° 0.1 mm 8 mps 769 mmHg 59%
    17:00 +2°C° 0.1 mm 8 mps 770 mmHg 56%
    18:00 +2°C° 0.1 mm 7 mps 770 mmHg 53%
    19:00 0°C° 0 mm 7 mps 771 mmHg 51%
    20:00 -1°C° 0 mm 6 mps 771 mmHg 48%
    21:00 -2°C° 0 mm 6 mps 771 mmHg 46%
    22:00 -1°C° 0 mm 5 mps 772 mmHg 47%
    23:00 -2°C° 0 mm 4 mps 772 mmHg 49%

    Tomorrow, 30 March, Monday

    Time Temperature Precipitation Wind Pressure Humidity
    00:00 -3°C° 0 mm 4 mps 772 mmHg 50%
    01:00 -2°C° 0 mm 3 mps 772 mmHg 52%
    02:00 -4°C° 0 mm 3 mps 772 mmHg 54%
    03:00 -4°C° 0 mm 3 mps 771 mmHg 56%
    04:00 -3°C° 0 mm 2 mps 771 mmHg 56%
    05:00 -3°C° 0 mm 2 mps 771 mmHg 55%
    06:00 0°C° 0 mm 1 mps 771 mmHg 55%
    07:00 -1°C° 0 mm 2 mps 771 mmHg 50%
    08:00 +2°C° 0 mm 2 mps 771 mmHg 45%
    09:00 +4°C° 0 mm 2 mps 770 mmHg 40%
    10:00 +5°C° 0 mm 2 mps 770 mmHg 41%
    11:00 +6°C° 0 mm 2 mps 769 mmHg 42%
    12:00 +7°C° 0 mm 3 mps 769 mmHg 42%
    13:00 +8°C° 0 mm 3 mps 768 mmHg 47%
    14:00 +8°C° 0 mm 3 mps 768 mmHg 52%
    15:00 +7°C° 0 mm 4 mps 767 mmHg 57%
    16:00 +7°C° 0.1 mm 3 mps 767 mmHg 64%
    17:00 +5°C° 0.1 mm 3 mps 767 mmHg 72%
    18:00 +5°C° 0.1 mm 2 mps 767 mmHg 80%
    19:00 +4°C° 0.1 mm 2 mps 767 mmHg 82%
    20:00 +3°C° 0.1 mm 3 mps 767 mmHg 85%
    21:00 +2°C° 0.1 mm 3 mps 768 mmHg 88%
    22:00 +2°C° 0 mm 3 mps 768 mmHg 86%
    23:00 +1°C° 0 mm 3 mps 768 mmHg 84%

    Day after tomorrow, 31 March, Tuesday

    Time Temperature Precipitation Wind Pressure Humidity
    00:00 0°C° 0 mm 4 mps 769 mmHg 83%
    01:00 0°C° 0 mm 3 mps 769 mmHg 81%
    02:00 -1°C° 0 mm 3 mps 769 mmHg 79%
    03:00 -2°C° 0 mm 3 mps 769 mmHg 76%
    04:00 -2°C° 0 mm 3 mps 769 mmHg 77%
    05:00 -2°C° 0 mm 3 mps 770 mmHg 78%
    06:00 -2°C° 0 mm 3 mps 770 mmHg 78%
    07:00 -1°C° 0 mm 4 mps 770 mmHg 70%
    08:00 +1°C° 0 mm 4 mps 770 mmHg 61%
    09:00 +4°C° 0 mm 4 mps 770 mmHg 52%
    10:00 +5°C° 0 mm 4 mps 770 mmHg 47%
    11:00 +6°C° 0 mm 4 mps 770 mmHg 41%
    12:00 +7°C° 0 mm 4 mps 770 mmHg 36%
    13:00 +7°C° 0 mm 4 mps 769 mmHg 36%
    14:00 +7°C° 0 mm 4 mps 769 mmHg 35%
    15:00 +7°C° 0 mm 4 mps 768 mmHg 35%
    16:00 +7°C° 0 mm 3 mps 768 mmHg 39%
    17:00 +5°C° 0 mm 3 mps 768 mmHg 44%
    18:00 +4°C° 0 mm 2 mps 768 mmHg 48%
    19:00 +4°C° 0 mm 2 mps 768 mmHg 49%
    20:00 +3°C° 0 mm 2 mps 768 mmHg 50%
    21:00 +2°C° 0 mm 2 mps 768 mmHg 51%
    22:00 +2°C° 0 mm 2 mps 768 mmHg 54%
    23:00 +2°C° 0 mm 1 mps 768 mmHg 58%

    1 April, Wednesday

    Time Temperature Precipitation Wind Pressure Humidity
    00:00 +1°C° 0 mm 1 mps 768 mmHg 62%
    01:00 +1°C° 0 mm 1 mps 767 mmHg 64%
    02:00 +1°C° 0 mm 1 mps 767 mmHg 67%
    03:00 0°C° 0 mm 0 mps 766 mmHg 69%
    04:00 0°C° 0 mm 0 mps 766 mmHg 69%
    05:00 0°C° 0 mm 0 mps 766 mmHg 68%
    06:00 +1°C° 0 mm 0 mps 766 mmHg 67%
    07:00 +3°C° 0 mm 0 mps 765 mmHg 61%
    08:00 +6°C° 0 mm 1 mps 765 mmHg 54%
    09:00 +8°C° 0 mm 1 mps 765 mmHg 48%
    10:00 +8°C° 0 mm 1 mps 764 mmHg 48%
    11:00 +9°C° 0 mm 1 mps 764 mmHg 48%
    12:00 +9°C° 0 mm 2 mps 764 mmHg 47%
    13:00 +9°C° 0 mm 2 mps 763 mmHg 50%
    14:00 +9°C° 0 mm 3 mps 762 mmHg 53%
    15:00 +8°C° 0 mm 3 mps 762 mmHg 56%
    16:00 +8°C° 0 mm 3 mps 761 mmHg 59%
    17:00 +7°C° 0 mm 2 mps 761 mmHg 62%
    18:00 +6°C° 0 mm 2 mps 761 mmHg 65%
    19:00 +6°C° 0 mm 1 mps 761 mmHg 67%
    20:00 +6°C° 0 mm 1 mps 761 mmHg 68%
    21:00 +5°C° 0 mm 1 mps 761 mmHg 69%
    22:00 +5°C° 0 mm 1 mps 761 mmHg 70%
    23:00 +5°C° 0 mm 1 mps 761 mmHg 71%

    2 April, Thursday

    Time Temperature Precipitation Wind Pressure Humidity
    00:00 +5°C° 0 mm 1 mps 761 mmHg 73%
    01:00 +3°C° 0 mm 2 mps 760 mmHg 74%
    02:00 +3°C° 0 mm 2 mps 760 mmHg 75%
    03:00 +3°C° 0 mm 2 mps 760 mmHg 76%
    04:00 +3°C° 0 mm 2 mps 760 mmHg 77%
    05:00 +1°C° 0 mm 3 mps 759 mmHg 78%
    06:00 +1°C° 0 mm 3 mps 759 mmHg 79%
    07:00 +3°C° 0 mm 3 mps 759 mmHg 74%
    08:00 +5°C° 0 mm 3 mps 759 mmHg 68%
    09:00 +8°C° 0 mm 3 mps 759 mmHg 63%
    10:00 +8°C° 0 mm 3 mps 758 mmHg 62%
    11:00 +9°C° 0 mm 3 mps 758 mmHg 60%
    12:00 +10°C° 0 mm 3 mps 758 mmHg 59%
    13:00 +10°C° 0 mm 3 mps 757 mmHg 60%
    14:00 +10°C° 0 mm 4 mps 757 mmHg 60%
    15:00 +10°C° 0 mm 4 mps 756 mmHg 61%
    16:00 +8°C° 0 mm 4 mps 756 mmHg 65%
    17:00 +8°C° 0 mm 4 mps 756 mmHg 68%
    18:00 +8°C° 0 mm 3 mps 756 mmHg 72%
    19:00 +8°C° 0 mm 3 mps 756 mmHg 74%
    20:00 +6°C° 0 mm 4 mps 756 mmHg 76%
    21:00 +6°C° 0 mm 4 mps 756 mmHg 78%
    22:00 +6°C° 0 mm 4 mps 756 mmHg 81%
    23:00 +5°C° 0 mm 4 mps 755 mmHg 84%

    3 April, Friday

    Time Temperature Precipitation Wind Pressure Humidity
    00:00 +5°C° 0 mm 4 mps 755 mmHg 87%
    01:00 +5°C° 0.1 mm 5 mps 755 mmHg 88%
    02:00 +5°C° 0.1 mm 5 mps 755 mmHg 89%
    03:00 +5°C° 0.1 mm 5 mps 755 mmHg 90%
    04:00 +5°C° 0 mm 4 mps 755 mmHg 90%
    05:00 +5°C° 0 mm 4 mps 756 mmHg 90%
    06:00 +4°C° 0 mm 3 mps 757 mmHg 89%
    07:00 +5°C° 0.1 mm 3 mps 757 mmHg 84%
    08:00 +5°C° 0.1 mm 3 mps 757 mmHg 79%
    09:00 +5°C° 0.1 mm 3 mps 758 mmHg 74%
    10:00 +7°C° 0 mm 3 mps 758 mmHg 69%
    11:00 +8°C° 0 mm 3 mps 759 mmHg 63%
    12:00 +7°C° 0 mm 4 mps 759 mmHg 58%
    13:00 +8°C° 0 mm 4 mps 760 mmHg 54%
    14:00 +8°C° 0 mm 4 mps 760 mmHg 51%
    15:00 +8°C° 0 mm 4 mps 760 mmHg 47%
    16:00 +7°C° 0 mm 4 mps 761 mmHg 50%
    17:00 +7°C° 0 mm 3 mps 761 mmHg 53%
    18:00 +5°C° 0 mm 3 mps 762 mmHg 55%
    19:00 +5°C° 0 mm 2 mps 762 mmHg 59%
    20:00 +4°C° 0 mm 2 mps 763 mmHg 62%
    21:00 +3°C° 0 mm 2 mps 764 mmHg 66%
    22:00 +3°C° 0 mm 1 mps 764 mmHg 68%
    23:00 +3°C° 0 mm 1 mps 765 mmHg 71%
    Show more